This is the latest recevied weather packets stored in our database for station/object LZ1NAG-10. If no packets are shown the sender has not sent any weather packets the latest 10 day(s).
| Time | Temp. | Humidity | Pressure | Rain* | Wind** | Luminosity | Snow |
|---|---|---|---|---|---|---|---|
| 1777710710 | 20.56° C | 45% | 1025.2 hPa | - | - | - | - |
| 1777709809 | 17.22° C | 48% | 1026 hPa | - | - | - | - |
| 1777708909 | 17.78° C | 46% | 1026 hPa | - | - | - | - |
| 1777708009 | 13.33° C | 50% | 1026.5 hPa | - | - | - | - |
| 1777707109 | 10.56° C | 53% | 1026.3 hPa | - | - | - | - |
| 1777706209 | 12.78° C | 51% | 1026 hPa | - | - | - | - |
| 1777705308 | 19.44° C | 43% | 1025.7 hPa | - | - | - | - |
| 1777704408 | 19.44° C | 42% | 1026.1 hPa | - | - | - | - |
| 1777703507 | 17.22° C | 43% | 1026.2 hPa | - | - | - | - |
| 1777702606 | 15° C | 44% | 1025.9 hPa | - | - | - | - |
| 1777701706 | 15° C | 44% | 1025.8 hPa | - | - | - | - |
| 1777700806 | 11.11° C | 46% | 1026 hPa | - | - | - | - |
| 1777699906 | 7.78° C | 49% | 1026.8 hPa | - | - | - | - |
| 1777699006 | 2.22° C | 54% | 1026.5 hPa | - | - | - | - |
| 1777698106 | 1.67° C | 54% | 1026.4 hPa | - | - | - | - |
| 1777697206 | 1.67° C | 54% | 1026.2 hPa | - | - | - | - |
| 1777696305 | 1.11° C | 54% | 1026.4 hPa | - | - | - | - |
| 1777695405 | 0.56° C | 54% | 1026.4 hPa | - | - | - | - |
| 1777694505 | 0.56° C | 54% | 1026.3 hPa | - | - | - | - |
| 1777693605 | 0.56° C | 54% | 1026.3 hPa | - | - | - | - |
| 1777692705 | 0° C | 54% | 1026.2 hPa | - | - | - | - |
| 1777691805 | 0° C | 54% | 1026.2 hPa | - | - | - | - |
| 1777690904 | -0.56° C | 54% | 1026.3 hPa | - | - | - | - |
| 1777690004 | 0° C | 54% | 1026.2 hPa | - | - | - | - |
| 1777689104 | -0.56° C | 54% | 1026.2 hPa | - | - | - | - |
* Rain since midnight (hover to see other rain measurements)
** Current wind speed in m/s (hover to see current wind gust speed)